K5RNB Weather Reports


Display with metric or nautical units.
time (UTC)temp
F
wind
direction
speed
MPH
gust
MPH
rain 1hr
in
rain 24hr
in
rain mn
in
humidity
%
barometer
mb
20260502162409 69 26 4.0 9.0 0.00 0.00 0.00 51 1021.7
20260502161909 68 17 3.0 8.0 0.00 0.00 0.00 50 1021.7
20260502161409 68 38 3.0 8.0 0.00 0.00 0.00 49 1021.7
20260502160910 68 13 3.0 8.0 0.00 0.00 0.00 46 1021.7
20260502160410 68 23 2.0 7.0 0.00 0.00 0.00 45 1021.8
20260502151910 65 6 5.0 9.0 0.00 0.00 0.00 53 1021.5
20260502150909 65 3 5.0 8.0 0.00 0.00 0.00 54 1021.6
20260502150410 64 28 5.0 8.0 0.00 0.00 0.00 59 1021.6
20260502130410 51 312 0.0 0.0 0.00 0.00 0.00 89 1020.9
20260502123411 48 312 0.0 0.0 0.00 0.00 0.00 89 1020.5
20260502122911 47 312 0.0 0.0 0.00 0.00 0.00 90 1020.4
20260502122411 47 312 0.0 0.0 0.00 0.00 0.00 89 1020.3
20260502121911 47 312 0.0 0.0 0.00 0.00 0.00 90 1020.2
20260502121411 47 312 0.0 0.0 0.00 0.00 0.00 90 1020.1
20260502120911 46 312 0.0 0.0 0.00 0.00 0.00 89 1020.2
20260502120411 46 312 0.0 0.0 0.00 0.00 0.00 89 1019.9
20260502115911 46 312 0.0 3.0 0.00 0.00 0.00 89 1019.8
20260502115411 46 312 0.0 3.0 0.00 0.00 0.00 89 1019.7
20260502114911 46 312 2.0 3.0 0.00 0.00 0.00 89 1019.5
20260502114411 46 312 1.0 2.0 0.00 0.00 0.00 89 1019.5
20260502113911 46 312 0.0 0.0 0.00 0.00 0.00 89 1019.5
20260502113411 46 312 0.0 0.0 0.00 0.00 0.00 89 1019.5
20260502112911 46 312 0.0 0.0 0.00 0.00 0.00 89 1019.4
20260502112412 47 312 0.0 2.0 0.00 0.00 0.00 89 1019.3
20260502111913 47 312 0.0 3.0 0.00 0.00 0.00 89 1019.5
20260502110911 47 312 2.0 3.0 0.00 0.00 0.00 89 1019.2
20260502110413 47 312 2.0 3.0 0.00 0.00 0.00 89 1019.2
20260502105913 47 312 2.0 3.0 0.00 0.00 0.00 89 1019.1
20260502105412 47 312 0.0 3.0 0.00 0.00 0.00 89 1019.3
20260502104911 48 312 0.0 0.0 0.00 0.00 0.00 89 1019.1
20260502104411 48 312 0.0 3.0 0.00 0.00 0.00 89 1019.0
20260502103912 48 312 0.0 3.0 0.00 0.00 0.00 89 1018.9
20260502103411 48 312 2.0 3.0 0.00 0.00 0.00 89 1018.8
20260502102913 48 312 0.0 0.0 0.00 0.00 0.00 89 1019.0
20260502102411 49 312 0.0 0.0 0.00 0.00 0.00 89 1018.6
20260502101913 49 312 0.0 0.0 0.00 0.00 0.00 89 1018.5
20260502101412 49 312 0.0 0.0 0.00 0.00 0.00 89 1018.4
20260502100912 49 312 0.0 0.0 0.00 0.00 0.00 89 1018.7
20260502100414 49 312 0.0 0.0 0.00 0.00 0.00 89 1018.5
20260502091412 49 312 2.0 3.0 0.00 0.00 0.00 90 1018.6
20260502090912 49 312 2.0 3.0 0.00 0.00 0.00 90 1018.5
20260502071413 51 191 0.0 0.0 0.00 0.00 0.00 89 1018.6
20260502070913 51 191 0.0 0.0 0.00 0.00 0.00 89 1018.6
20260502070413 51 191 0.0 0.0 0.00 0.00 0.00 89 1018.6
20260502065913 51 191 0.0 0.0 0.00 0.00 0.00 89 1018.6
20260502065413 51 191 0.0 0.0 0.00 0.00 0.00 89 1018.6
20260502064913 51 144 0.0 0.0 0.00 0.00 0.00 89 1018.6
20260502063913 51 144 0.0 0.0 0.00 0.00 0.00 89 1018.7
20260502063413 51 144 0.0 0.0 0.00 0.00 0.00 89 1018.7
20260502062413 51 144 0.0 0.0 0.00 0.00 0.00 89 1018.7
20260502061413 51 144 0.0 0.0 0.00 0.00 0.00 89 1018.6
20260502060413 51 144 0.0 0.0 0.00 0.00 0.00 88 1018.7
20260502055913 52 144 0.0 0.0 0.00 0.00 0.00 88 1018.6
20260502055413 52 144 0.0 0.0 0.00 0.00 0.00 88 1018.5
20260502054913 52 144 0.0 0.0 0.00 0.00 0.00 88 1018.5
20260502053913 52 144 0.0 1.0 0.00 0.00 0.00 87 1018.6
20260502053414 52 144 0.0 1.0 0.00 0.00 0.00 87 1018.6
20260502052414 54 144 0.0 3.0 0.00 0.00 0.00 87 1018.5
20260502051913 54 144 2.0 3.0 0.00 0.00 0.00 87 1018.8
20260502051413 54 144 0.0 2.0 0.00 0.00 0.00 87 1018.7
20260502050915 54 144 1.0 3.0 0.00 0.00 0.00 87 1018.6
20260502050416 54 159 2.0 5.0 0.00 0.00 0.00 87 1018.4
20260502045914 54 159 3.0 7.0 0.00 0.00 0.00 86 1018.2
20260502045414 54 161 5.0 7.0 0.00 0.00 0.00 86 1018.1
20260502044914 54 92 1.0 3.0 0.00 0.00 0.00 86 1018.0
20260502043913 55 92 2.0 3.0 0.00 0.00 0.00 85 1018.1
20260502043415 55 92 2.0 3.0 0.00 0.00 0.00 85 1018.2
20260502042915 55 92 0.0 0.0 0.00 0.00 0.00 85 1018.2
20260502042415 55 92 0.0 0.0 0.00 0.00 0.00 85 1018.2
20260502041914 55 92 0.0 0.0 0.00 0.00 0.00 85 1018.3
20260502041414 55 92 0.0 0.0 0.00 0.00 0.00 85 1018.2
20260502040914 55 32 0.0 0.0 0.00 0.00 0.00 85 1018.2
20260502035414 56 32 0.0 0.0 0.00 0.00 0.00 84 1018.2
20260502034916 57 32 0.0 0.0 0.00 0.00 0.00 84 1018.1
20260502034413 57 32 0.0 0.0 0.00 0.00 0.00 84 1018.1
20260502033914 57 32 0.0 0.0 0.00 0.00 0.00 84 1018.2
20260502033414 57 32 0.0 0.0 0.00 0.00 0.00 84 1018.1
20260502032414 57 32 0.0 0.0 0.00 0.00 0.00 84 1018.1
20260502031915 58 32 0.0 0.0 0.00 0.00 0.00 84 1018.1
20260502031414 58 32 0.0 2.0 0.00 0.00 0.00 85 1018.0
20260502030915 58 32 0.0 2.0 0.00 0.00 0.00 85 1017.8
20260502030415 58 20 0.0 3.0 0.00 0.00 0.00 85 1018.0
20260502025914 58 355 0.0 3.0 0.00 0.00 0.00 85 1017.9
20260502025414 58 121 0.0 0.0 0.00 0.00 0.00 86 1017.8
20260502024914 58 121 0.0 0.0 0.00 0.00 0.00 86 1017.8
20260502024414 59 121 0.0 0.0 0.00 0.00 0.00 85 1017.7
20260502023414 59 121 0.0 0.0 0.00 0.00 0.00 85 1017.5
20260502022915 59 121 0.0 0.0 0.00 0.00 0.00 85 1017.5
20260502022415 59 121 0.0 0.0 0.00 0.00 0.00 85 1017.4
20260502021414 59 121 0.0 0.0 0.00 0.00 0.00 85 1017.3
20260502020915 60 121 0.0 0.0 0.00 0.00 0.00 85 1017.2
20260502020415 60 121 0.0 0.0 0.00 0.00 0.00 85 1017.1
20260502015914 60 121 0.0 0.0 0.00 0.00 0.00 85 1017.0
20260502014916 60 121 0.0 0.0 0.00 0.00 0.00 84 1016.8
20260502014414 60 121 0.0 0.0 0.00 0.00 0.00 84 1016.6
20260502012915 62 121 0.0 0.0 0.00 0.00 0.00 82 1016.4
20260502012416 62 121 0.0 0.0 0.00 0.00 0.00 81 1016.2
20260502011915 62 121 0.0 0.0 0.00 0.00 0.00 80 1016.1
20260502010417 63 121 0.0 0.0 0.00 0.00 0.00 76 1016.0
20260502005916 63 121 0.0 0.0 0.00 0.00 0.00 76 1015.9
20260502005415 63 121 0.0 0.0 0.00 0.00 0.00 75 1015.7
20260502004915 63 121 0.0 0.0 0.00 0.00 0.00 72 1015.7
20260502004416 63 121 0.0 0.0 0.00 0.00 0.00 71 1015.7
20260502003915 63 121 0.0 0.0 0.00 0.00 0.00 71 1015.5
20260502003415 63 121 0.0 0.0 0.00 0.00 0.00 73 1015.5
20260502002915 64 121 0.0 0.0 0.00 0.00 0.00 74 1015.4
20260502002415 64 121 0.0 0.0 0.00 0.00 0.00 73 1015.5
20260502001916 64 121 0.0 0.0 0.00 0.00 0.00 75 1015.4
20260502001415 64 121 0.0 0.0 0.00 0.00 0.00 73 1015.2
20260502000916 64 121 0.0 0.0 0.00 0.00 0.00 70 1015.1
20260502000416 64 121 0.0 0.0 0.00 0.00 0.00 68 1015.0
20260501235915 65 121 0.0 0.0 0.00 0.00 0.00 69 1015.0
20260501235415 65 121 0.0 0.0 0.00 0.00 0.00 70 1015.0
20260501234916 65 121 0.0 0.0 0.00 0.00 0.00 69 1014.9
20260501233415 66 121 2.0 3.0 0.00 0.00 0.00 63 1014.7
20260501232915 67 121 2.0 3.0 0.00 0.00 0.00 61 1014.6
20260501232417 67 115 1.0 3.0 0.00 0.00 0.00 61 1014.5
20260501231915 67 111 0.0 2.0 0.00 0.00 0.00 61 1014.6
20260501231416 67 111 0.0 2.0 0.00 0.00 0.00 61 1014.6
20260501230416 67 111 1.0 3.0 0.00 0.00 0.00 59 1014.6
20260501225916 67 111 1.0 3.0 0.00 0.00 0.00 60 1014.5
20260501224916 68 110 1.0 6.0 0.00 0.00 0.00 58 1014.5
20260501224417 68 123 2.0 3.0 0.00 0.00 0.00 56 1014.5
20260501223915 68 117 2.0 3.0 0.00 0.00 0.00 57 1014.5
20260501223416 69 118 2.0 3.0 0.00 0.00 0.00 57 1014.6
20260501222916 69 103 1.0 3.0 0.00 0.00 0.00 58 1014.4
20260501221916 70 98 1.0 3.0 0.00 0.00 0.00 57 1014.4
20260501221416 70 98 1.0 3.0 0.00 0.00 0.00 58 1014.3
20260501220416 69 92 1.0 3.0 0.00 0.00 0.00 57 1014.4
20260501215416 68 95 3.0 7.0 0.00 0.00 0.00 56 1014.5
20260501214917 68 89 2.0 6.0 0.00 0.00 0.00 57 1014.5
20260501214416 68 95 3.0 6.0 0.00 0.00 0.00 57 1014.6
20260501213916 68 84 3.0 10.0 0.00 0.00 0.00 57 1014.6
20260501213416 68 76 5.0 10.0 0.00 0.00 0.00 55 1014.6
20260501212916 68 69 3.0 10.0 0.00 0.00 0.00 56 1014.7
20260501212416 68 86 5.0 9.0 0.00 0.00 0.00 56 1014.6
20260501211916 67 80 5.0 9.0 0.00 0.00 0.00 58 1014.8
20260501211416 67 94 4.0 12.0 0.00 0.00 0.00 59 1014.9
20260501210917 67 107 5.0 12.0 0.00 0.00 0.00 59 1015.0
20260501210416 67 104 5.0 12.0 0.00 0.00 0.00 61 1015.0
20260501205916 67 85 4.0 12.0 0.00 0.00 0.00 60 1015.1
20260501205416 67 80 7.0 12.0 0.00 0.00 0.00 59 1015.1
20260501204917 66 64 3.0 10.0 0.00 0.00 0.00 61 1015.4
20260501202417 66 91 3.0 12.0 0.00 0.00 0.00 63 1015.6
20260501201917 65 79 6.0 12.0 0.00 0.00 0.00 61 1015.6
20260501201416 65 70 7.0 12.0 0.00 0.00 0.00 61 1015.6
20260501200916 65 61 8.0 13.0 0.00 0.00 0.00 61 1015.7
20260501195916 65 67 6.0 14.0 0.00 0.00 0.00 61 1015.4
20260501194917 65 69 8.0 16.0 0.00 0.00 0.00 61 1015.3
20260501194417 65 48 10.0 16.0 0.00 0.00 0.00 61 1015.2
20260501193417 65 53 10.0 14.0 0.00 0.00 0.00 60 1015.1
20260501192917 65 54 9.0 15.0 0.00 0.00 0.00 60 1015.2
20260501192416 65 51 8.0 15.0 0.00 0.00 0.00 61 1015.3
20260501191916 65 56 8.0 14.0 0.00 0.00 0.00 61 1015.5
20260501191417 65 77 9.0 20.0 0.00 0.00 0.00 62 1015.5
20260501190917 65 98 9.0 20.0 0.00 0.00 0.00 62 1015.4
20260501190417 65 79 9.0 17.0 0.00 0.00 0.00 64 1015.2
20260501185917 65 67 9.0 17.0 0.00 0.00 0.00 63 1015.2
20260501184918 65 59 10.0 15.0 0.00 0.00 0.00 62 1015.5
20260501184418 65 83 9.0 18.0 0.00 0.00 0.00 61 1015.6
20260501183917 65 89 12.0 20.0 0.00 0.00 0.00 60 1015.5
20260501183418 65 81 10.0 20.0 0.00 0.00 0.00 60 1015.6
20260501182417 64 71 12.0 18.0 0.00 0.00 0.00 59 1015.6
20260501181917 64 69 12.0 20.0 0.00 0.00 0.00 60 1015.7
20260501181417 64 69 14.0 20.0 0.00 0.00 0.00 58 1015.8
20260501180918 65 76 13.0 20.0 0.00 0.00 0.00 58 1016.0
20260501175917 65 86 12.0 20.0 0.00 0.00 0.00 60 1016.1
20260501175417 65 82 13.0 20.0 0.00 0.00 0.00 59 1016.0
20260501174918 65 77 9.0 20.0 0.00 0.00 0.00 59 1016.1
20260501174417 65 72 10.0 16.0 0.00 0.00 0.00 62 1016.2
20260501173918 65 86 9.0 16.0 0.00 0.00 0.00 62 1016.2
20260501173417 65 63 10.0 16.0 0.00 0.00 0.00 61 1016.2
20260501172918 64 77 9.0 16.0 0.00 0.00 0.00 64 1016.3
20260501172418 64 68 9.0 15.0 0.00 0.00 0.00 65 1016.6
20260501171918 64 64 10.0 15.0 0.00 0.00 0.00 65 1016.6
20260501171418 63 59 8.0 14.0 0.00 0.00 0.00 68 1016.8
20260501170918 63 72 6.0 16.0 0.00 0.00 0.00 70 1016.8
20260501170418 63 90 9.0 16.0 0.00 0.00 0.00 68 1016.9
20260501164418 62 78 7.0 13.0 0.00 0.00 0.00 72 1016.9
20260501163917 62 88 7.0 12.0 0.00 0.00 0.00 74 1017.0
20260501163418 62 84 6.0 12.0 0.00 0.00 0.00 74 1017.1
20260501162918 62 96 4.0 12.0 0.00 0.00 0.00 75 1017.2